Weather History for Imperial, CA

Change the Weather History Date:

Friday, November 16, 2012

  Actual Average Record
Temperature  
Mean Temperature 64 °F -  
Max Temperature 79 °F 77 °F 89 °F (1949)
Min Temperature 48 °F 49 °F 33 °F (1964)
Degree Days  
Heating Degree Days 2    
Growing Degree Days 14 (Base 50)    
Moisture  
Dew Point 38 °F    
Average Humidity 41    
Maximum Humidity 65    
Minimum Humidity 19    
Precipitation  
Precipitation 0.00 in - - ()
Sea Level Pressure  
Sea Level Pressure 30.02 in    
Wind  
Wind Speed 3 mph (SSW)    
Max Wind Speed 9 mph    
Max Gust Speed -    
Visibility 10 miles    
Events      
Averages and records for this station are not official NWS values.
T = Trace of Precipitation, MM = Missing Value Source: NWS Daily Summary

Daily Weather History Graph

Daily Weather History Graph

Search for Another Location

Airport:

Trip Planner

Search our weather history database for the weather conditions in past years. The results will help you decide how hot, cold, wet, or windy it might be!

Date:

Astronomy

Nov. 16, 2012 Rise Set
Actual Time 6:14 AM PST 4:40 PM PST
Civil Twilight 5:47 AM PST 5:06 PM PST
Nautical Twilight 5:17 AM PST 5:36 PM PST
Astronomical Twilight 4:48 AM PST 6:05 PM PST
Moon 9:09 AM PST 7:46 PM PST
Length of Visible Light 11h 18m
Length of Day
10h 26m
Waxing Crescent, 12% of the Moon is Illuminated
Nov 16
Waxing Crescent
Nov 20
First Quarter
Nov 28
Full
Dec 6
Last Quarter
Dec 13
New

Hourly Weather History & Observations

Time (PST) Temp. Dew Point Humidity Pressure Visibility Wind Dir Wind Speed Gust Speed Precip Events Conditions
12:53 AM 54.0 °F 39.0 °F 57% 30.02 in 10.0 mi Calm Calm - N/A   Clear
1:53 AM 52.0 °F 39.0 °F 61% 30.02 in 10.0 mi WSW 5.8 mph - N/A   Clear
2:53 AM 52.0 °F 37.0 °F 57% 30.01 in 10.0 mi WNW 4.6 mph - N/A   Clear
3:53 AM 50.0 °F 35.1 °F 57% 30.02 in 10.0 mi Calm Calm - N/A   Clear
4:53 AM 48.9 °F 37.0 °F 64% 30.02 in 10.0 mi WSW 3.5 mph - N/A   Clear
5:53 AM 50.0 °F 35.1 °F 57% 30.04 in 10.0 mi WSW 5.8 mph - N/A   Scattered Clouds
6:53 AM 51.1 °F 30.9 °F 46% 30.05 in 10.0 mi WSW 3.5 mph - N/A   Partly Cloudy
7:53 AM 57.0 °F 34.0 °F 42% 30.07 in 10.0 mi Calm Calm - N/A   Clear
8:53 AM 64.0 °F 45.0 °F 50% 30.07 in 10.0 mi Calm Calm - N/A   Clear
9:53 AM 68.0 °F 46.0 °F 45% 30.07 in 9.0 mi Calm Calm - N/A   Clear
10:53 AM 73.9 °F 36.0 °F 25% 30.05 in 10.0 mi East 4.6 mph - N/A   Clear
11:53 AM 77.0 °F 32.0 °F 19% 30.03 in 10.0 mi North 3.5 mph - N/A   Clear
12:53 PM 77.0 °F 34.0 °F 21% 30.00 in 10.0 mi SE 4.6 mph - N/A   Clear
1:53 PM 79.0 °F 36.0 °F 21% 29.99 in 10.0 mi ESE 5.8 mph - N/A   Clear
2:53 PM 79.0 °F 36.0 °F 21% 29.97 in 10.0 mi SE 4.6 mph - N/A   Clear
3:53 PM 79.0 °F 35.1 °F 20% 29.97 in 10.0 mi ESE 4.6 mph - N/A   Overcast
4:53 PM 75.9 °F 37.0 °F 24% 29.97 in 10.0 mi Calm Calm - N/A   Partly Cloudy
5:53 PM 72.0 °F 35.1 °F 26% 29.98 in 10.0 mi Calm Calm - N/A   Clear
6:53 PM 68.0 °F 39.0 °F 35% 29.99 in 10.0 mi Calm Calm - N/A   Clear
7:53 PM 64.9 °F 36.0 °F 34% 29.99 in 10.0 mi Calm Calm - N/A   Clear
8:53 PM 64.0 °F 37.0 °F 37% 30.00 in 10.0 mi Calm Calm - N/A   Clear
9:53 PM 62.1 °F 37.0 °F 39% 30.01 in 10.0 mi SSE 3.5 mph - N/A   Clear
10:53 PM 57.0 °F 41.0 °F 55% 30.02 in 10.0 mi WSW 3.5 mph - N/A   Clear
11:53 PM 63.0 °F 51.1 °F 65% 30.01 in 10.0 mi WSW 9.2 mph - N/A   Clear